Temp_Advection
nan nan nan nan nan nan nan nan nan nan nan nan nan nan nan nan nan nan nan nan nan nan nan nan nan nan nan nan nan nan nan nan nan nan nan nan nan nan nan nan nan nan nan nan
nan -0 0 -0 -1 0 -0 -0 -0 -0 -0 -0 -0 -0 -0 -0 -0 -0 -0 -0 -0 -0 -0 -0 -0 0 -0 -0 -0 -0 -0 -0 -0 -0 -0 0 1 0 0 0 -0 0 0 nan
nan -0 -0 -0 -0 0 0 -0 -0 -0 -0 -0 -0 -0 -1 -0 -0 -1 -0 -0 -0 -0 -0 -0 0 0 -0 -0 -0 -0 -0 -0 0 0 1 1 0 -0 -0 -0 -0 0 0 nan
nan -0 -0 -0 0 0 0 -0 0 -0 0 0 -0 0 -0 -0 0 -0 -1 -0 -0 -0 -0 -0 -0 0 -0 -0 0 0 0 1 1 1 0 -0 -0 -0 -0 -0 -0 0 0 nan
nan 0 0 -0 -0 0 0 0 0 0 -0 0 0 -0 -0 0 -0 -1 -0 -1 -1 -0 -0 -0 -0 0 -0 0 0 0 0 0 0 0 0 0 0 0 0 0 0 0 -0 nan
nan -0 0 -0 0 -0 -0 -0 -0 -0 -0 0 0 -0 -0 -0 -0 -0 -1 -1 -1 -0 0 -0 0 0 0 0 0 0 0 -0 0 0 0 0 0 0 0 0 0 -0 0 nan
nan 0 -0 0 0 -0 -0 -0 -0 0 0 -0 -0 -0 -0 -0 -0 -0 -0 0 -0 -0 0 -0 -0 0 0 0 0 0 0 0 0 0 0 0 0 0 0 0 -0 -0 0 nan
nan -0 0 -0 0 0 0 -0 -0 0 0 0 0 -0 -0 -0 0 1 0 0 0 0 0 0 -0 0 0 0 0 0 0 0 0 0 0 0 0 0 0 0 0 0 0 nan
nan 0 0 -0 0 0 -0 -0 -0 -0 -0 0 -0 -0 -0 -0 0 1 1 0 0 0 -0 -0 -0 0 0 0 0 0 0 0 0 0 0 1 0 0 0 0 1 1 0 nan
nan 0 -0 -0 -0 -0 0 -0 -0 -0 0 0 -0 -0 0 0 0 0 0 1 0 0 0 -0 -0 -0 0 0 0 0 0 0 0 0 0 1 1 0 -0 -0 0 0 0 nan
nan -0 -0 -0 -0 -0 -0 -0 -0 -0 -0 0 0 -0 0 0 0 0 0 0 0 -0 -0 -0 -0 -0 -0 -0 0 0 0 0 0 0 0 1 0 0 0 1 1 0 1 nan
nan -0 -0 0 -0 -0 -0 -0 -0 -0 0 -0 0 -0 -0 0 0 0 0 0 -0 -0 -0 -0 -0 -1 -1 -1 -0 0 1 0 -0 0 0 0 0 1 1 1 1 1 1 nan
nan -0 -0 -0 -0 -0 -0 0 -0 -0 -0 0 -0 -0 -0 -0 0 0 0 -0 -0 -0 -0 -0 -0 -0 -0 -0 -1 -0 -0 1 1 0 0 0 0 0 0 0 0 0 0 nan
nan -0 -0 -0 -0 0 0 0 -0 -0 -0 -0 -0 -0 -0 -0 -0 -0 0 -0 -0 -0 -0 -1 -1 -1 -1 -1 -0 -0 -0 -0 1 1 0 -0 0 0 0 0 0 -0 -0 nan
nan -0 0 0 0 0 -0 0 0 -0 -0 -0 -0 -0 0 -0 -0 0 -0 -0 -1 -1 -1 -1 -1 -1 -1 -1 -1 -0 -0 -0 0 1 0 0 0 -0 -0 -0 -0 0 0 nan
nan 0 -0 -0 -0 -0 -0 -0 0 -0 0 -0 0 -0 0 0 -0 -0 -0 -1 -1 -1 -1 -1 -1 -1 -1 -0 -1 -1 -0 0 0 -0 0 0 0 -0 -0 0 0 0 0 nan
nan -0 -0 -0 -0 -0 -0 -0 -0 -0 -0 -0 0 0 0 -0 -0 -0 -1 -1 -1 -1 -1 -1 -1 -0 -1 -1 -0 -1 -1 0 0 -0 -0 0 0 0 0 0 0 0 0 nan
nan -0 -0 0 -0 0 -0 -0 -0 -0 -0 -1 -0 -0 -0 -0 -0 -0 -0 -0 -0 -1 -1 -1 -1 -1 -0 -0 -1 -1 -1 -1 0 0 0 0 0 0 0 0 0 0 0 nan
nan -0 -0 -0 0 -0 -0 -0 0 -0 -0 -0 -0 -0 -0 -0 0 0 0 0 -0 -1 -1 -1 -1 -1 -1 -1 -1 -1 -1 -1 -1 0 0 0 0 1 0 0 0 1 0 nan
nan -0 -0 -0 -0 -0 0 0 -0 -0 0 -0 0 -0 -0 -0 -0 -0 -1 -0 -1 -1 -1 -1 -1 -0 -1 -1 -1 -1 -1 -1 -1 0 1 1 1 1 1 0 0 0 0 nan
nan -0 0 0 -0 -0 -0 -0 -0 -0 0 -0 -0 -0 -0 -0 -0 0 -1 -1 -1 -1 -2 -1 -1 -1 -1 -1 -1 -1 -1 -1 -0 0 1 1 1 1 1 0 -0 0 2 nan
nan -0 0 0 -0 -0 0 0 0 -0 -0 0 -0 0 0 0 -0 -0 -0 -0 0 0 -1 -1 -1 -1 -1 -1 -1 -1 -1 -1 -1 -0 0 0 1 1 1 0 -0 0 2 nan
nan -0 0 0 0 -0 0 0 0 0 -0 0 0 0 0 -0 -0 -0 -0 -0 -0 0 0 -0 -0 -1 -1 -0 -0 -1 -1 -0 -0 -0 -0 0 1 1 0 -0 -0 1 2 nan
nan -0 0 0 -0 0 1 0 0 0 0 0 0 0 0 -0 -0 -0 -0 -0 -1 -1 -0 -0 -0 -0 -1 -1 -0 -0 -0 -0 -0 0 -0 0 0 0 0 -0 0 1 1 nan
nan 0 -0 -0 -0 0 0 0 0 0 -0 -0 0 0 0 0 0 -0 0 0 0 -0 -0 -0 -1 -1 -1 -1 -0 -0 -0 -0 -0 0 0 0 0 0 -0 -0 0 0 1 nan
nan nan nan nan nan nan nan nan nan nan nan nan nan nan nan nan nan nan nan nan nan nan nan nan nan nan nan nan nan nan nan nan nan nan nan nan nan nan nan nan nan nan nan nan
Wind_Speed
3 3 4 3 10 4 10 9 8 10 10 5 7 8 7 8 6 13 19 23 21 16 13 14 11 10 19 23 27 26 31 31 29 27 30 31 30 28 24 24 21 19 17 15
4 4 5 7 14 12 9 12 6 7 12 5 6 11 10 6 6 10 21 21 24 28 20 17 19 17 16 19 22 24 26 27 28 29 32 30 28 27 28 24 23 21 20 19
5 4 7 4 3 13 9 12 9 8 6 2 7 5 14 7 10 18 17 21 19 23 26 32 30 25 21 20 20 22 25 26 28 28 28 27 25 23 26 27 24 22 21 21
1 8 9 4 1 4 5 4 5 16 10 4 3 2 7 13 12 6 21 21 17 18 19 26 27 31 28 24 22 22 24 26 29 29 30 29 26 24 24 25 25 24 23 22
3 10 8 5 2 3 3 7 5 12 7 2 3 1 5 2 7 14 16 26 25 23 19 23 19 31 33 29 25 26 23 25 26 28 30 28 26 25 22 22 25 28 26 25
6 4 3 2 4 3 6 9 11 5 3 2 6 4 5 2 6 5 13 22 25 24 22 20 16 18 34 31 28 28 25 25 25 27 28 27 28 28 27 26 27 24 18 22
3 2 4 1 6 4 2 7 3 2 0 2 3 4 7 5 3 4 7 5 5 16 24 20 15 13 26 28 26 28 26 25 26 30 30 29 30 26 26 25 28 24 21 27
2 3 3 5 3 6 8 4 4 4 5 4 3 5 4 3 10 15 13 10 10 9 6 3 11 14 13 18 23 23 22 24 26 28 29 31 29 29 27 27 26 25 24 23
4 4 3 2 3 1 3 3 3 6 4 4 3 2 2 6 6 13 14 16 13 9 7 5 3 7 14 16 19 20 19 20 21 22 24 24 25 28 29 27 22 18 18 18
2 5 5 5 2 3 5 4 2 3 3 3 2 1 3 4 4 4 7 11 12 13 15 14 8 4 8 14 15 17 18 18 19 19 19 19 18 18 17 15 13 16 19 18
3 4 4 3 5 3 5 3 5 4 2 3 2 4 3 7 7 7 6 7 10 13 15 16 15 14 10 8 15 17 18 19 19 21 21 19 19 19 18 19 23 23 21 21
2 4 4 2 4 3 1 1 3 4 1 2 3 4 3 4 4 10 9 12 6 9 10 11 12 13 13 14 14 15 18 20 21 22 22 22 21 21 22 21 21 21 20 24
1 3 3 6 5 2 2 2 3 4 3 1 3 3 6 10 12 12 13 13 12 11 11 11 9 11 13 13 14 15 16 18 19 22 23 23 23 23 22 22 22 22 21 18
3 3 4 5 5 3 3 4 3 4 3 3 3 4 6 4 6 11 13 10 9 10 12 14 15 16 15 16 16 17 18 18 18 19 22 24 24 23 24 23 21 18 18 19
3 3 3 3 4 2 3 4 6 6 4 4 3 4 3 3 6 8 8 9 10 13 15 16 17 18 18 18 17 17 21 21 20 20 22 23 22 23 22 20 19 19 20 20
3 1 3 4 6 6 2 2 3 2 3 2 4 3 2 4 6 8 10 13 16 17 18 20 20 19 20 21 22 21 19 23 24 22 21 20 21 21 21 21 21 20 21 22
3 3 3 1 4 4 4 3 1 0 3 1 5 3 2 3 6 4 10 14 18 22 23 24 24 24 24 24 25 23 23 20 25 25 22 21 22 23 23 22 22 22 21 21
4 3 2 1 4 3 4 4 2 10 6 7 7 5 6 5 10 11 10 17 23 27 28 29 28 27 26 25 26 24 20 22 24 26 24 24 25 25 25 24 23 22 21 21
4 4 3 3 2 4 2 2 1 1 1 4 4 5 8 13 3 9 9 22 25 27 25 25 27 25 25 25 26 25 24 23 23 25 26 24 26 27 26 24 22 22 22 21
5 5 4 2 3 6 4 2 3 2 3 1 6 2 4 9 4 3 17 27 29 27 24 25 25 21 21 22 25 25 22 20 22 24 25 24 24 25 26 23 22 22 22 20
2 1 4 2 2 4 4 3 2 4 4 6 2 4 8 3 6 21 24 28 25 25 26 23 19 19 19 23 24 22 18 16 17 21 27 25 23 23 23 23 23 21 21 18
5 5 3 1 1 6 2 2 5 4 6 2 4 7 9 10 14 18 23 24 24 24 25 22 20 20 21 23 23 20 18 15 13 16 21 23 23 24 24 24 23 21 20 16
2 5 4 6 3 1 2 6 9 7 3 3 7 8 11 14 14 15 18 17 18 18 20 20 21 24 21 21 20 19 17 15 15 17 20 23 24 24 23 24 23 21 20 18
2 1 3 3 2 4 11 9 5 2 2 2 5 7 8 11 13 15 18 19 20 20 21 20 22 24 24 20 19 17 15 14 13 13 15 17 20 21 22 23 22 21 21 19
4 5 4 2 4 9 4 3 3 2 1 2 4 6 9 11 12 13 18 19 20 22 21 23 21 22 23 23 21 17 15 14 13 13 14 16 19 21 22 23 22 21 21 19
4 4 4 4 15 4 8 6 5 0 2 4 6 8 8 10 14 16 19 20 20 22 23 22 21 22 21 21 21 20 17 15 14 15 16 17 19 21 22 22 21 21 20 19
Wind_Direction
117 178 181 224 279 155 136 149 131 154 153 114 247 272 246 277 202 223 226 232 235 224 218 223 217 200 203 215 216 213 220 218 227 226 228 225 227 228 220 221 223 231 235 235
130 196 127 271 254 141 106 126 102 97 145 183 183 261 273 278 266 251 237 231 234 235 228 220 231 225 205 207 214 218 224 222 221 226 227 228 228 228 224 221 227 231 225 225
174 201 123 273 260 114 141 161 168 153 164 131 140 245 264 270 251 252 250 238 238 237 234 236 240 236 224 212 211 220 224 224 225 230 232 227 228 229 224 225 215 222 224 231
105 147 151 266 163 129 126 192 154 153 154 173 149 289 231 228 241 223 241 246 247 251 243 238 236 230 231 228 225 223 224 226 225 228 233 234 231 227 225 220 218 223 229 235
152 147 128 209 220 120 144 131 117 123 81 95 146 11 265 82 245 250 246 244 248 249 253 242 252 234 229 232 232 226 232 234 233 231 235 233 233 231 236 241 231 226 234 246
68 47 96 277 104 91 99 81 40 50 59 95 206 137 303 222 214 241 243 250 251 247 259 246 247 241 224 225 226 232 227 234 240 240 240 236 236 232 232 229 234 231 238 252
50 35 260 26 82 62 103 105 88 95 66 170 145 126 245 274 287 213 140 134 224 255 256 257 242 229 224 230 231 232 234 233 237 243 242 242 241 234 235 231 243 241 238 243
73 104 11 347 137 171 164 118 142 137 170 146 126 215 256 34 76 93 97 97 98 100 88 87 231 229 229 236 231 233 240 244 243 243 242 240 237 234 232 234 232 237 240 240
121 50 328 239 358 54 171 87 172 103 352 74 210 211 38 38 57 90 91 84 76 63 53 43 37 228 222 222 227 233 239 243 246 249 248 244 243 237 238 238 240 241 242 251
178 81 357 301 3 11 113 158 99 17 111 154 280 265 187 137 128 90 76 83 81 75 65 52 31 352 245 243 250 253 253 254 257 253 244 235 229 228 228 233 236 258 260 260
115 78 310 8 24 2 8 21 55 105 96 141 108 276 229 177 179 142 88 59 63 58 44 35 25 21 8 298 267 260 258 256 256 253 248 237 230 217 216 233 241 230 234 245
33 101 76 76 294 261 254 92 101 107 252 52 129 292 8 153 76 71 56 61 65 21 9 22 13 0 352 342 322 299 276 265 261 257 246 242 237 230 238 228 225 231 241 251
18 39 66 358 349 4 238 195 105 93 52 310 121 245 46 67 74 84 75 62 59 49 37 27 9 342 325 319 316 315 303 285 266 255 249 243 241 243 239 239 243 253 260 270
104 104 150 178 206 132 182 175 109 111 110 180 218 117 41 67 81 52 45 51 48 35 21 11 360 349 333 321 300 296 299 300 282 261 252 249 248 246 244 245 249 254 265 273
79 108 85 54 44 96 196 173 168 188 160 158 231 124 154 120 74 45 52 49 32 15 6 1 352 345 342 332 307 301 284 288 282 269 254 249 246 242 240 244 250 257 265 275
26 91 85 6 26 45 33 17 217 215 159 233 169 120 166 111 82 56 52 43 26 7 357 350 346 341 334 333 326 290 291 270 272 267 261 248 244 242 242 244 250 259 267 273
73 110 64 338 348 10 358 317 245 65 63 273 216 134 168 44 40 74 54 31 10 357 347 339 336 331 330 325 325 309 280 281 259 263 258 246 240 242 245 250 255 263 270 277
113 92 87 151 18 23 262 331 62 106 48 33 64 68 49 357 340 135 42 10 354 346 339 332 326 319 321 320 322 311 286 270 261 253 256 249 246 246 248 251 258 265 274 278
98 104 80 118 162 274 240 25 118 169 69 358 85 29 11 354 126 193 337 340 336 332 325 321 322 313 311 316 321 315 298 273 266 246 250 250 249 248 249 252 260 267 274 273
76 86 115 180 165 210 197 195 344 129 263 146 121 92 357 7 7 239 315 319 321 320 318 320 319 315 315 315 321 320 305 278 269 246 246 250 252 252 251 253 258 265 274 273
99 61 150 182 210 283 210 260 323 106 247 151 57 8 354 342 274 302 312 315 318 318 318 324 324 319 319 320 321 320 310 297 277 256 248 250 253 255 254 252 255 264 269 269
166 153 188 133 168 269 104 81 162 158 112 107 326 313 309 298 299 304 313 320 320 318 321 326 328 327 322 323 320 315 312 300 289 269 255 251 256 257 251 251 256 262 257 263
187 184 181 179 213 55 108 142 134 162 170 264 290 296 301 302 305 309 313 319 322 326 326 326 324 323 318 321 320 313 317 294 277 268 261 258 258 252 249 251 258 256 247 251
309 151 126 126 131 119 126 128 134 152 244 275 300 305 299 299 304 305 311 315 317 319 320 323 323 321 320 320 322 314 309 308 285 270 263 257 252 251 251 256 260 249 244 246
202 136 134 80 65 125 162 160 160 129 324 323 318 323 321 317 322 318 312 319 317 313 317 316 318 316 316 323 321 320 306 298 287 276 271 263 258 256 256 261 256 250 250 247
194 176 164 221 173 141 168 174 166 332 297 311 323 326 329 322 322 325 323 320 322 322 324 320 321 316 313 313 314 320 312 295 288 279 277 272 263 259 261 263 258 254 250 241
Height
1476 1477 1475 1478 1474 1469 1473 1484 1489 1496 1495 1500 1504 1499 1498 1494 1495 1497 1499 1500 1503 1504 1505 1507 1509 1511 1513 1516 1520 1523 1527 1528 1533 1535 1537 1538 1539 1542 1542 1544 1546 1549 1551 1552
1477 1475 1477 1480 1474 1465 1469 1477 1487 1491 1494 1501 1502 1497 1494 1493 1493 1494 1497 1498 1500 1502 1504 1505 1508 1510 1511 1513 1517 1521 1524 1526 1527 1528 1531 1533 1537 1539 1540 1542 1543 1545 1548 1549
1473 1471 1475 1477 1469 1468 1477 1478 1483 1489 1492 1498 1503 1506 1498 1493 1491 1492 1493 1496 1497 1497 1499 1501 1503 1507 1509 1511 1512 1515 1517 1521 1522 1527 1530 1530 1534 1536 1537 1538 1540 1541 1544 1546
1467 1471 1473 1474 1468 1469 1480 1476 1477 1481 1489 1497 1495 1504 1497 1488 1489 1490 1490 1491 1493 1495 1495 1497 1499 1503 1506 1508 1510 1512 1514 1516 1520 1523 1526 1526 1527 1530 1533 1535 1537 1538 1540 1543
1471 1469 1472 1477 1472 1471 1474 1476 1480 1483 1493 1495 1498 1507 1495 1489 1490 1485 1483 1487 1490 1492 1492 1494 1496 1498 1501 1505 1507 1510 1514 1517 1518 1519 1521 1521 1523 1527 1531 1533 1531 1533 1535 1538
1469 1472 1476 1474 1471 1472 1474 1483 1490 1495 1500 1503 1498 1507 1498 1492 1486 1483 1482 1483 1486 1488 1490 1492 1493 1493 1496 1500 1502 1506 1511 1513 1513 1514 1515 1516 1520 1522 1524 1526 1529 1529 1529 1535
1473 1477 1476 1473 1475 1477 1480 1485 1504 1505 1506 1503 1499 1509 1499 1483 1481 1479 1480 1482 1483 1485 1487 1489 1491 1491 1494 1496 1498 1502 1505 1508 1509 1509 1511 1512 1516 1516 1518 1520 1526 1526 1525 1529
1473 1475 1474 1477 1480 1482 1482 1484 1501 1500 1508 1503 1500 1507 1494 1487 1484 1482 1481 1483 1484 1486 1486 1486 1488 1490 1491 1493 1496 1499 1501 1502 1504 1506 1507 1508 1510 1512 1514 1517 1519 1520 1522 1524
1477 1478 1475 1476 1474 1477 1481 1490 1483 1501 1505 1509 1505 1494 1490 1488 1486 1485 1486 1486 1487 1487 1488 1488 1488 1488 1490 1492 1495 1497 1499 1500 1501 1502 1503 1503 1505 1508 1511 1513 1515 1518 1521 1523
1473 1481 1482 1477 1475 1476 1477 1480 1492 1498 1509 1500 1503 1495 1496 1490 1489 1488 1489 1489 1491 1491 1490 1489 1488 1489 1489 1492 1495 1496 1497 1498 1498 1499 1500 1501 1503 1505 1508 1509 1511 1515 1517 1518
1469 1477 1487 1483 1488 1489 1484 1485 1487 1493 1501 1506 1505 1499 1487 1489 1490 1490 1490 1491 1492 1492 1492 1491 1491 1491 1493 1493 1494 1494 1493 1494 1496 1496 1498 1499 1501 1501 1503 1505 1506 1508 1511 1512
1471 1481 1491 1491 1487 1486 1484 1484 1488 1509 1504 1513 1518 1504 1486 1488 1492 1494 1495 1494 1495 1494 1493 1491 1491 1493 1493 1492 1492 1490 1490 1490 1491 1492 1493 1496 1498 1499 1501 1501 1503 1505 1506 1507
1472 1485 1510 1500 1492 1487 1486 1483 1484 1490 1499 1505 1514 1507 1493 1493 1495 1497 1497 1497 1497 1496 1494 1493 1492 1492 1491 1490 1490 1489 1488 1487 1487 1488 1489 1491 1493 1495 1497 1498 1500 1501 1501 1501
1473 1485 1491 1500 1491 1487 1490 1486 1487 1493 1510 1502 1502 1497 1498 1500 1500 1500 1499 1498 1497 1496 1495 1493 1492 1491 1490 1487 1486 1485 1485 1484 1483 1483 1485 1487 1489 1491 1493 1494 1495 1496 1496 1496
1477 1491 1492 1486 1485 1485 1485 1485 1488 1493 1492 1496 1492 1496 1500 1500 1501 1501 1501 1499 1497 1495 1493 1492 1491 1489 1488 1485 1483 1482 1482 1481 1481 1480 1481 1482 1484 1486 1487 1489 1490 1491 1492 1492
1480 1498 1491 1502 1488 1488 1487 1487 1488 1490 1492 1492 1495 1499 1500 1501 1501 1501 1500 1499 1498 1497 1495 1491 1489 1488 1486 1484 1481 1478 1477 1477 1477 1477 1476 1477 1479 1481 1483 1484 1486 1487 1487 1486
1484 1494 1504 1503 1498 1492 1497 1491 1489 1489 1490 1491 1495 1499 1500 1502 1503 1502 1502 1499 1499 1496 1493 1490 1487 1485 1483 1480 1477 1474 1473 1472 1471 1471 1472 1473 1475 1477 1479 1480 1481 1481 1481 1480
1486 1492 1505 1518 1505 1519 1496 1492 1490 1495 1500 1499 1498 1501 1503 1502 1500 1500 1498 1496 1494 1492 1489 1486 1483 1480 1478 1476 1472 1468 1466 1464 1463 1464 1466 1469 1470 1472 1473 1474 1475 1475 1475 1474
1481 1492 1506 1512 1518 1503 1493 1493 1493 1492 1505 1502 1502 1502 1501 1498 1497 1497 1495 1494 1492 1490 1488 1485 1482 1478 1474 1471 1467 1462 1458 1457 1457 1457 1460 1463 1464 1466 1467 1468 1469 1470 1470 1469
1486 1489 1498 1506 1505 1499 1490 1489 1489 1489 1499 1499 1499 1499 1498 1495 1497 1494 1492 1489 1487 1486 1483 1479 1475 1472 1470 1466 1461 1457 1453 1450 1450 1452 1454 1458 1460 1461 1462 1463 1464 1464 1464 1464
1494 1495 1500 1503 1506 1495 1489 1491 1491 1500 1500 1497 1498 1498 1497 1497 1496 1491 1489 1486 1485 1481 1476 1474 1470 1467 1464 1461 1456 1453 1449 1446 1446 1447 1451 1454 1455 1456 1457 1458 1458 1458 1458 1458
1491 1498 1499 1501 1500 1499 1488 1490 1493 1496 1496 1498 1498 1497 1496 1495 1492 1490 1487 1483 1480 1477 1473 1470 1466 1463 1461 1458 1453 1449 1446 1444 1443 1443 1446 1448 1450 1450 1451 1453 1452 1452 1452 1453
1489 1487 1490 1492 1491 1488 1487 1488 1491 1493 1495 1495 1495 1494 1493 1492 1490 1488 1485 1482 1479 1476 1472 1468 1464 1460 1457 1454 1449 1445 1442 1440 1440 1440 1441 1443 1444 1444 1446 1447 1447 1447 1447 1448
1483 1482 1486 1488 1492 1490 1489 1491 1492 1493 1493 1492 1492 1492 1491 1489 1487 1485 1482 1479 1475 1472 1468 1464 1460 1456 1452 1449 1445 1442 1439 1437 1436 1436 1437 1437 1438 1439 1441 1441 1441 1442 1442 1443
1484 1483 1487 1492 1493 1492 1492 1493 1493 1493 1494 1494 1492 1491 1489 1487 1484 1481 1478 1475 1472 1467 1463 1460 1456 1452 1448 1445 1442 1438 1436 1434 1432 1432 1432 1433 1434 1435 1435 1435 1435 1436 1437 1439
1480 1482 1486 1485 1483 1485 1488 1490 1492 1492 1492 1490 1490 1489 1487 1485 1482 1479 1475 1472 1468 1463 1459 1455 1451 1447 1444 1441 1438 1435 1432 1430 1428 1428 1428 1428 1429 1429 1429 1430 1430 1431 1432 1434